| time (UTC) | temp F | wind direction | speed MPH | gust MPH | rain 1hr in | rain 24hr in | rain mn in | humidity % | barometer mb |
| 20260506090548 | 43 | 175 | 0.0 | 0.0 | 0.00 | 0.01 | 0.00 | 73 | 1005.9 |
| 20260506090044 | 44 | 160 | 0.0 | 1.0 | 0.00 | 0.01 | 0.00 | 74 | 1006.0 |
| 20260506085548 | 44 | 177 | 0.0 | 0.0 | 0.00 | 0.01 | 0.00 | 75 | 1005.9 |
| 20260506083827 | 44 | 174 | 0.0 | 3.0 | 0.00 | 0.01 | 0.00 | 75 | 1005.9 |
| 20260506083322 | 45 | 172 | 0.0 | 0.0 | 0.00 | 0.01 | 0.00 | 74 | 1005.8 |
| 20260506082806 | 45 | 190 | 0.0 | 0.0 | 0.00 | 0.01 | 0.00 | 74 | 1005.9 |
| 20260506081654 | 45 | 166 | 0.0 | 0.0 | 0.00 | 0.01 | 0.00 | 72 | 1005.9 |
| 20260506081157 | 46 | 179 | 0.0 | 2.0 | 0.00 | 0.01 | 0.00 | 72 | 1005.9 |
| 20260506080645 | 46 | 176 | 0.0 | 3.0 | 0.00 | 0.01 | 0.00 | 72 | 1005.9 |
| 20260506080137 | 46 | 188 | 0.0 | 0.0 | 0.00 | 0.01 | 0.00 | 71 | 1005.9 |
| 20260506073121 | 47 | 176 | 0.0 | 2.0 | 0.00 | 0.01 | 0.00 | 63 | 1005.5 |
| 20260506072627 | 47 | 172 | 0.0 | 0.0 | 0.00 | 0.01 | 0.00 | 62 | 1005.5 |
| 20260506072107 | 47 | 167 | 0.0 | 2.0 | 0.00 | 0.01 | 0.00 | 62 | 1005.6 |
| 20260506070946 | 47 | 153 | 0.0 | 0.0 | 0.00 | 0.01 | 0.00 | 61 | 1005.5 |
| 20260506070443 | 47 | 153 | 0.0 | 0.0 | 0.00 | 0.01 | 0.00 | 61 | 1005.5 |
| 20260506062312 | 48 | 163 | 0.0 | 2.0 | 0.00 | 0.01 | 0.00 | 58 | 1005.7 |
| 20260506061802 | 48 | 132 | 0.0 | 3.0 | 0.00 | 0.01 | 0.00 | 58 | 1005.6 |
| 20260506060623 | 48 | 139 | 0.0 | 2.0 | 0.00 | 0.01 | 0.00 | 57 | 1005.5 |
| 20260506060112 | 48 | 176 | 0.0 | 4.0 | 0.00 | 0.01 | 0.00 | 56 | 1005.4 |
| 20260506051037 | 49 | 146 | 0.0 | 3.0 | 0.00 | 0.02 | 0.00 | 55 | 1005.4 |
| 20260506050523 | 49 | 182 | 0.0 | 1.0 | 0.00 | 0.02 | 0.00 | 55 | 1005.4 |
| 20260506045008 | 49 | 167 | 0.0 | 0.0 | 0.00 | 0.02 | 0.00 | 55 | 1005.2 |
| 20260506043835 | 49 | 140 | 0.0 | 1.0 | 0.00 | 0.02 | 0.00 | 55 | 1005.3 |
| 20260506043342 | 49 | 175 | 0.0 | 0.0 | 0.00 | 0.02 | 0.00 | 54 | 1005.0 |
| 20260506042836 | 49 | 166 | 0.0 | 0.0 | 0.00 | 0.02 | 0.00 | 55 | 1005.1 |
| 20260506042336 | 49 | 150 | 0.0 | 0.0 | 0.00 | 0.02 | 0.00 | 54 | 1005.3 |
| 20260506041206 | 49 | 203 | 0.0 | 2.0 | 0.00 | 0.02 | 0.00 | 55 | 1005.3 |
| 20260506040703 | 49 | 162 | 0.0 | 3.0 | 0.00 | 0.02 | 0.00 | 55 | 1005.2 |
| 20260506040152 | 49 | 163 | 0.0 | 0.0 | 0.00 | 0.02 | 0.00 | 55 | 1005.4 |
| 20260506035644 | 49 | 162 | 0.0 | 0.0 | 0.00 | 0.02 | 0.02 | 55 | 1005.4 |
| 20260506035150 | 49 | 167 | 0.0 | 0.0 | 0.00 | 0.02 | 0.02 | 55 | 1005.4 |
| 20260506034631 | 49 | 169 | 0.0 | 0.0 | 0.00 | 0.02 | 0.02 | 54 | 1005.3 |
| 20260506034117 | 49 | 158 | 0.0 | 0.0 | 0.00 | 0.02 | 0.02 | 55 | 1005.5 |
| 20260506033626 | 49 | 175 | 0.0 | 0.0 | 0.00 | 0.02 | 0.02 | 55 | 1005.4 |
| 20260506032447 | 49 | 140 | 0.0 | 0.0 | 0.00 | 0.02 | 0.02 | 54 | 1005.5 |
| 20260506031326 | 49 | 178 | 0.0 | 0.0 | 0.00 | 0.02 | 0.02 | 54 | 1005.3 |
| 20260506030810 | 50 | 221 | 0.0 | 0.0 | 0.00 | 0.02 | 0.02 | 57 | 1005.4 |
| 20260506030256 | 50 | 185 | 0.0 | 0.0 | 0.00 | 0.02 | 0.02 | 54 | 1005.3 |
| 20260506024455 | 50 | 182 | 0.0 | 0.0 | 0.00 | 0.02 | 0.02 | 53 | 1005.5 |
| 20260506024002 | 50 | 158 | 0.0 | 0.0 | 0.00 | 0.02 | 0.02 | 54 | 1005.4 |
| 20260506023455 | 50 | 159 | 0.0 | 0.0 | 0.00 | 0.02 | 0.02 | 53 | 1005.3 |
| 20260506022331 | 50 | 178 | 0.0 | 0.0 | 0.00 | 0.02 | 0.02 | 53 | 1005.6 |
| 20260506021825 | 50 | 184 | 0.0 | 1.0 | 0.00 | 0.02 | 0.02 | 53 | 1005.6 |
| 20260506021327 | 50 | 174 | 0.0 | 2.0 | 0.00 | 0.02 | 0.02 | 53 | 1005.6 |
| 20260506020210 | 51 | 138 | 0.0 | 1.0 | 0.00 | 0.02 | 0.02 | 52 | 1005.1 |
| 20260506015714 | 51 | 134 | 0.0 | 1.0 | 0.00 | 0.02 | 0.02 | 52 | 1005.1 |
| 20260506015208 | 51 | 103 | 0.0 | 1.0 | 0.00 | 0.02 | 0.02 | 53 | 1005.1 |
| 20260506014713 | 51 | 175 | 0.0 | 0.0 | 0.00 | 0.02 | 0.02 | 53 | 1005.0 |
| 20260506014202 | 50 | 169 | 0.0 | 0.0 | 0.00 | 0.02 | 0.02 | 54 | 1004.9 |
| 20260506013654 | 51 | 190 | 0.0 | 0.0 | 0.00 | 0.02 | 0.02 | 56 | 1004.9 |
| 20260506012544 | 51 | 148 | 0.0 | 0.0 | 0.00 | 0.02 | 0.02 | 55 | 1004.8 |
| 20260506012046 | 51 | 147 | 0.0 | 0.0 | 0.00 | 0.02 | 0.02 | 55 | 1004.7 |
| 20260506011533 | 51 | 161 | 0.0 | 0.0 | 0.00 | 0.02 | 0.02 | 59 | 1004.7 |
| 20260506010413 | 51 | 149 | 0.0 | 0.0 | 0.00 | 0.02 | 0.02 | 61 | 1004.7 |
| 20260506005910 | 51 | 146 | 0.0 | 0.0 | 0.00 | 0.02 | 0.02 | 63 | 1004.8 |
| 20260506005413 | 51 | 184 | 0.0 | 0.0 | 0.00 | 0.02 | 0.02 | 68 | 1004.8 |
| 20260506004241 | 52 | 186 | 0.0 | 0.0 | 0.00 | 0.03 | 0.02 | 65 | 1004.6 |
| 20260506003732 | 52 | 186 | 0.0 | 0.0 | 0.00 | 0.03 | 0.02 | 63 | 1004.7 |
| 20260506003215 | 52 | 259 | 0.0 | 0.0 | 0.00 | 0.03 | 0.02 | 63 | 1004.8 |
| 20260506002726 | 52 | 110 | 0.0 | 0.0 | 0.00 | 0.03 | 0.02 | 63 | 1004.7 |
| 20260506002225 | 52 | 62 | 0.0 | 2.0 | 0.00 | 0.03 | 0.02 | 63 | 1004.6 |
| 20260506001711 | 52 | 103 | 0.0 | 0.0 | 0.00 | 0.03 | 0.02 | 64 | 1004.4 |
| 20260506000539 | 53 | 143 | 0.0 | 0.0 | 0.00 | 0.03 | 0.02 | 63 | 1004.2 |
| 20260506000045 | 53 | 62 | 0.0 | 0.0 | 0.00 | 0.03 | 0.02 | 63 | 1004.2 |
| 20260505235554 | 53 | 93 | 0.0 | 0.0 | 0.00 | 0.03 | 0.02 | 62 | 1004.2 |
| 20260505235041 | 53 | 79 | 0.0 | 0.0 | 0.00 | 0.03 | 0.02 | 61 | 1004.1 |
| 20260505234541 | 53 | 133 | 0.0 | 0.0 | 0.00 | 0.03 | 0.02 | 61 | 1004.0 |
| 20260505234024 | 53 | 82 | 0.0 | 1.0 | 0.00 | 0.03 | 0.02 | 60 | 1004.0 |
| 20260505233519 | 53 | 285 | 0.0 | 0.0 | 0.00 | 0.03 | 0.02 | 60 | 1003.9 |
| 20260505233016 | 54 | 75 | 0.0 | 0.0 | 0.00 | 0.03 | 0.02 | 59 | 1003.9 |
| 20260505232522 | 54 | 147 | 0.0 | 0.0 | 0.00 | 0.03 | 0.02 | 60 | 1003.9 |
| 20260505232031 | 54 | 127 | 0.0 | 0.0 | 0.00 | 0.03 | 0.02 | 59 | 1003.8 |
| 20260505230932 | 54 | 84 | 0.0 | 0.0 | 0.00 | 0.03 | 0.02 | 59 | 1003.9 |
| 20260505230416 | 54 | 62 | 0.0 | 0.0 | 0.00 | 0.03 | 0.02 | 59 | 1003.9 |
| 20260505225922 | 54 | 62 | 0.0 | 0.0 | 0.00 | 0.03 | 0.02 | 58 | 1004.0 |
| 20260505225432 | 54 | 148 | 0.0 | 0.0 | 0.00 | 0.03 | 0.02 | 58 | 1004.0 |
| 20260505224308 | 54 | 142 | 0.0 | 1.0 | 0.00 | 0.03 | 0.02 | 56 | 1004.1 |
| 20260505222523 | 54 | 160 | 0.0 | 4.0 | 0.00 | 0.03 | 0.02 | 56 | 1004.1 |
| 20260505221345 | 55 | 120 | 0.0 | 0.0 | 0.00 | 0.03 | 0.02 | 58 | 1004.1 |
| 20260505220830 | 54 | 154 | 0.0 | 0.0 | 0.00 | 0.03 | 0.02 | 57 | 1004.1 |
| 20260505220331 | 54 | 96 | 1.0 | 5.0 | 0.00 | 0.03 | 0.02 | 58 | 1004.2 |
| 20260505215206 | 55 | 328 | 0.0 | 4.0 | 0.00 | 0.03 | 0.02 | 63 | 1004.1 |
| 20260505214702 | 55 | 63 | 0.0 | 4.0 | 0.00 | 0.03 | 0.02 | 64 | 1004.0 |
| 20260505214153 | 54 | 188 | 0.0 | 0.0 | 0.00 | 0.03 | 0.02 | 67 | 1003.9 |
| 20260505213657 | 54 | 112 | 0.0 | 0.0 | 0.00 | 0.03 | 0.02 | 71 | 1003.8 |
| 20260505213151 | 54 | 84 | 0.0 | 0.0 | 0.00 | 0.03 | 0.02 | 74 | 1003.9 |
| 20260505212028 | 53 | 72 | 0.0 | 0.0 | 0.00 | 0.03 | 0.02 | 77 | 1004.0 |
| 20260505211518 | 53 | 62 | 0.0 | 3.0 | 0.00 | 0.03 | 0.02 | 76 | 1004.1 |
| 20260505211004 | 53 | 62 | 0.0 | 0.0 | 0.00 | 0.03 | 0.02 | 76 | 1003.9 |
| 20260505210453 | 53 | 62 | 0.0 | 0.0 | 0.00 | 0.03 | 0.02 | 76 | 1003.9 |
| 20260505205313 | 54 | 63 | 0.0 | 0.0 | 0.00 | 0.03 | 0.02 | 77 | 1003.9 |
| 20260505204803 | 54 | 95 | 0.0 | 2.0 | 0.00 | 0.03 | 0.02 | 77 | 1003.9 |
| 20260505204248 | 54 | 97 | 0.0 | 2.0 | 0.00 | 0.03 | 0.02 | 77 | 1003.8 |
| 20260505201840 | 54 | 61 | 0.0 | 6.0 | 0.00 | 0.03 | 0.02 | 77 | 1003.9 |
| 20260505201323 | 54 | 96 | 0.0 | 3.0 | 0.00 | 0.03 | 0.02 | 78 | 1004.0 |
| 20260505200823 | 54 | 148 | 0.0 | 2.0 | 0.00 | 0.03 | 0.02 | 79 | 1004.0 |
| 20260505200307 | 53 | 61 | 0.0 | 0.0 | 0.00 | 0.03 | 0.02 | 80 | 1004.0 |
| 20260505195812 | 53 | 61 | 1.0 | 7.0 | 0.00 | 0.03 | 0.02 | 80 | 1004.1 |
| 20260505195309 | 53 | 62 | 1.0 | 7.0 | 0.00 | 0.03 | 0.02 | 80 | 1004.1 |
| 20260505194811 | 53 | 61 | 1.0 | 4.0 | 0.00 | 0.03 | 0.02 | 81 | 1004.2 |
| 20260505193701 | 54 | 77 | 0.0 | 0.0 | 0.00 | 0.03 | 0.02 | 77 | 1004.2 |
| 20260505193154 | 55 | 65 | 0.0 | 4.0 | 0.00 | 0.03 | 0.02 | 74 | 1004.2 |
| 20260505192656 | 55 | 61 | 0.0 | 0.0 | 0.00 | 0.03 | 0.02 | 66 | 1004.2 |
| 20260505192157 | 55 | 154 | 0.0 | 0.0 | 0.00 | 0.03 | 0.02 | 65 | 1004.2 |
| 20260505191656 | 55 | 61 | 0.0 | 2.0 | 0.00 | 0.03 | 0.02 | 67 | 1004.1 |
| 20260505191157 | 55 | 61 | 0.0 | 4.0 | 0.00 | 0.03 | 0.02 | 62 | 1004.2 |
| 20260505190659 | 55 | 126 | 0.0 | 8.0 | 0.00 | 0.03 | 0.02 | 63 | 1004.1 |
| 20260505184855 | 55 | 62 | 0.0 | 1.0 | 0.00 | 0.03 | 0.02 | 66 | 1003.8 |
| 20260505183717 | 56 | 152 | 0.0 | 0.0 | 0.00 | 0.03 | 0.02 | 66 | 1003.8 |
| 20260505183209 | 56 | 153 | 1.0 | 5.0 | 0.00 | 0.03 | 0.02 | 66 | 1003.7 |
| 20260505182655 | 56 | 61 | 0.0 | 5.0 | 0.00 | 0.03 | 0.02 | 68 | 1003.6 |
| 20260505182142 | 56 | 61 | 0.0 | 2.0 | 0.00 | 0.03 | 0.02 | 70 | 1003.5 |
| 20260505181643 | 55 | 61 | 0.0 | 2.0 | 0.00 | 0.03 | 0.02 | 70 | 1003.4 |
| 20260505180523 | 55 | 329 | 1.0 | 6.0 | 0.00 | 0.03 | 0.02 | 72 | 1003.4 |
| 20260505180012 | 54 | 329 | 1.0 | 6.0 | 0.00 | 0.03 | 0.02 | 72 | 1003.5 |
| 20260505175511 | 54 | 132 | 1.0 | 6.0 | 0.00 | 0.03 | 0.02 | 72 | 1003.2 |
| 20260505175016 | 55 | 91 | 1.0 | 6.0 | 0.00 | 0.03 | 0.02 | 71 | 1003.3 |
| 20260505174510 | 55 | 328 | 1.0 | 6.0 | 0.00 | 0.03 | 0.02 | 73 | 1003.4 |
| 20260505174001 | 55 | 61 | 1.0 | 6.0 | 0.00 | 0.03 | 0.02 | 74 | 1003.2 |
| 20260505173510 | 55 | 109 | 1.0 | 5.0 | 0.00 | 0.03 | 0.02 | 77 | 1003.2 |
| 20260505173001 | 54 | 63 | 2.0 | 7.0 | 0.00 | 0.03 | 0.02 | 79 | 1003.1 |
| 20260505172448 | 54 | 61 | 1.0 | 7.0 | 0.00 | 0.03 | 0.02 | 78 | 1003.2 |
| 20260505171947 | 53 | 80 | 0.0 | 7.0 | 0.00 | 0.03 | 0.02 | 78 | 1003.3 |
| 20260505170819 | 52 | 313 | 0.0 | 4.0 | 0.00 | 0.03 | 0.02 | 82 | 1003.4 |
| 20260505165710 | 51 | 63 | 0.0 | 5.0 | 0.00 | 0.03 | 0.02 | 82 | 1003.5 |
| 20260505164545 | 51 | 62 | 0.0 | 4.0 | 0.00 | 0.03 | 0.02 | 82 | 1003.5 |
| 20260505164042 | 51 | 153 | 0.0 | 0.0 | 0.00 | 0.03 | 0.02 | 82 | 1003.5 |
| 20260505163549 | 52 | 153 | 0.0 | 0.0 | 0.00 | 0.03 | 0.02 | 79 | 1003.4 |
| 20260505163034 | 52 | 153 | 0.0 | 0.0 | 0.00 | 0.02 | 0.01 | 77 | 1003.4 |
| 20260505162523 | 52 | 153 | 0.0 | 0.0 | 0.00 | 0.02 | 0.01 | 76 | 1003.6 |
| 20260505161344 | 52 | 153 | 0.0 | 0.0 | 0.00 | 0.02 | 0.01 | 74 | 1003.7 |
| 20260505160846 | 52 | 200 | 0.0 | 0.0 | 0.00 | 0.02 | 0.01 | 73 | 1003.6 |
| 20260505160328 | 52 | 157 | 0.0 | 3.0 | 0.00 | 0.02 | 0.01 | 72 | 1003.6 |
| 20260505153141 | 53 | 177 | 1.0 | 3.0 | 0.00 | 0.02 | 0.01 | 67 | 1003.2 |
| 20260505152013 | 54 | 155 | 0.0 | 1.0 | 0.00 | 0.02 | 0.01 | 68 | 1002.8 |
| 20260505151454 | 54 | 160 | 0.0 | 0.0 | 0.00 | 0.02 | 0.01 | 68 | 1002.8 |
| 20260505150958 | 54 | 172 | 0.0 | 4.0 | 0.00 | 0.02 | 0.01 | 67 | 1002.7 |
| 20260505150448 | 54 | 174 | 0.0 | 2.0 | 0.00 | 0.02 | 0.01 | 67 | 1002.7 |
| 20260505140406 | 54 | 176 | 1.0 | 2.0 | 0.00 | 0.02 | 0.01 | 67 | 1002.2 |
| 20260505124439 | 52 | 221 | 0.0 | 1.0 | 0.00 | 0.02 | 0.01 | 75 | 1000.5 |
| 20260505123920 | 52 | 160 | 0.0 | 0.0 | 0.00 | 0.02 | 0.01 | 76 | 1000.5 |
| 20260505123401 | 52 | 188 | 0.0 | 1.0 | 0.00 | 0.02 | 0.01 | 76 | 1000.7 |
| 20260505122905 | 52 | 167 | 1.0 | 6.0 | 0.00 | 0.02 | 0.01 | 76 | 1000.4 |
| 20260505122346 | 53 | 170 | 0.0 | 4.0 | 0.00 | 0.02 | 0.01 | 76 | 1000.7 |
| 20260505121855 | 53 | 169 | 0.0 | 6.0 | 0.00 | 0.02 | 0.01 | 76 | 1000.7 |
| 20260505121353 | 54 | 154 | 0.0 | 6.0 | 0.00 | 0.02 | 0.01 | 77 | 1000.5 |
| 20260505120857 | 54 | 165 | 1.0 | 6.0 | 0.00 | 0.02 | 0.01 | 76 | 1000.1 |
| 20260505115726 | 57 | 209 | 0.0 | 4.0 | 0.00 | 0.02 | 0.01 | 81 | 1000.1 |
| 20260505114611 | 57 | 139 | 0.0 | 0.0 | 0.00 | 0.02 | 0.01 | 83 | 999.7 |
| 20260505114104 | 56 | 143 | 0.0 | 1.0 | 0.00 | 0.02 | 0.01 | 84 | 999.6 |
| 20260505111655 | 56 | 136 | 0.0 | 1.0 | 0.00 | 0.02 | 0.01 | 86 | 998.9 |
| 20260505111159 | 55 | 152 | 0.0 | 1.0 | 0.00 | 0.02 | 0.01 | 87 | 998.8 |
| 20260505110709 | 55 | 65 | 0.0 | 5.0 | 0.00 | 0.02 | 0.01 | 87 | 998.8 |
| 20260505110215 | 55 | 204 | 0.0 | 0.0 | 0.00 | 0.02 | 0.01 | 87 | 998.7 |
| 20260505101725 | 57 | 112 | 0.0 | 3.0 | 0.00 | 0.02 | 0.01 | 84 | 997.6 |
| 20260505101214 | 57 | 328 | 0.0 | 8.0 | 0.00 | 0.02 | 0.01 | 84 | 997.6 |
| 20260505100703 | 57 | 62 | 0.0 | 8.0 | 0.00 | 0.02 | 0.01 | 84 | 997.7 |
| 20260505100143 | 57 | 70 | 0.0 | 8.0 | 0.00 | 0.02 | 0.01 | 84 | 997.8 |
| 20260505093725 | 58 | 253 | 1.0 | 9.0 | 0.00 | 0.02 | 0.01 | 82 | 997.5 |
| 20260505093223 | 58 | 62 | 2.0 | 9.0 | 0.00 | 0.02 | 0.01 | 82 | 997.4 |
| 20260505092705 | 58 | 98 | 1.0 | 9.0 | 0.00 | 0.02 | 0.01 | 81 | 997.4 |
| 20260505092207 | 58 | 69 | 1.0 | 7.0 | 0.00 | 0.02 | 0.01 | 81 | 997.2 |
| 20260505091709 | 59 | 62 | 1.0 | 10.0 | 0.00 | 0.02 | 0.01 | 80 | 997.2 |
| 20260505091211 | 59 | 328 | 1.0 | 10.0 | 0.00 | 0.02 | 0.01 | 80 | 997.3 |